{"data":{"norad_id":55410,"intl_designator":"2023-014V","name":"STARLINK-5633","alt_names":[],"object_type":"PAYLOAD","status":"ACTIVE","operator":null,"country":"US","launch_date":"2023-01-31","launch_site_code":"AFWTR","launch_vehicle":null,"mission":null,"orbit_class":"UNKNOWN","rcs_meters":null,"size_class":null,"mass_kg":null,"dimensions":null,"purposes":["comms"],"wikipedia_slug":null,"has_3d_model":false,"image_url":null,"decayed_at":null,"tle_current":{"epoch":"2026-09-20T22:38:47.900544Z","epoch_age_seconds":58395,"freshness":"FRESH","line1":"1 55410U 23014V   26263.94360996  .00119892  00000+0  96352-2 0  9996","line2":"2 55410  69.9987 311.9779 0003143 275.7164  84.3638 14.99318040200817","mean_motion":14.9931804,"eccentricity":0.0003143,"inclination_deg":69.9987,"raan_deg":311.9779,"arg_perigee_deg":275.7164,"mean_anomaly_deg":84.3638,"bstar":0.0096352,"rev_number":20081,"period_min":96.043665291988,"perigee_km":566.81865096387,"apogee_km":571.18562262526,"semimajor_km":6947.1391367946,"source":"CELESTRAK","updated_at":"2026-09-21T09:00:33.217177Z"}}}